Weaverville, CA

6:55 AM PST on November 22, 2017 (GMT -0800)
Weaverville

Weather History for KO54 - January, 2014

Change the Weather History Date:

Sunday, January 12, 2014

  Actual Average (KRDD) Record (KRDD)
Temperature  
Mean Temperature 37 °F -  
Max Temperature 46 °F 53 °F 75 °F (2009)
Min Temperature 28 °F 36 °F 25 °F (2013)
Degree Days  
Heating Degree Days 28    
Moisture  
Dew Point 31 °F    
Average Humidity 85    
Maximum Humidity 100    
Minimum Humidity 57    
Precipitation  
Precipitation 0.00 in - - ()
Sea Level Pressure  
Sea Level Pressure 30.39 in    
Wind  
Wind Speed 1 mph (NNE)    
Max Wind Speed 8 mph    
Max Gust Speed -    
Visibility 8 miles    
Events      
Averages and records for this station are not official NWS values.
T = Trace of Precipitation, MM = Missing Value Source: NWS Daily Summary

Daily Weather History Graph

Daily Weather History Graph

Search for Another Location

Airport or City:

Trip Planner

Search our weather history database for the weather conditions in past years. The results will help you decide how hot, cold, wet, or windy it might be!

Date:

Astronomy

Jan. 12, 2014 Rise Set
Actual Time 7:34 AM PST 5:05 PM PST
Civil Twilight 7:04 AM PST 5:36 PM PST
Nautical Twilight 6:30 AM PST 6:09 PM PST
Astronomical Twilight 5:57 AM PST 6:42 PM PST
Moon 2:38 PM PST (1/12) 4:38 AM PST (1/12)
Length of Visible Light 10h 31m
Length of Day
9h 31m
Waxing Gibbous, 90% of the Moon is Illuminated
Jan 12
Waxing Gibbous
Jan 15
Full
Jan 23
Last Quarter
Jan 30
New
Feb 6
First Quarter

Hourly Weather History & Observations

Time (PST) Temp. Windchill Dew Point Humidity Pressure Visibility Wind Dir Wind Speed Gust Speed Precip Events Conditions
12:15 AM 35.6 °F - 32.0 °F 87% 30.25 in 6.0 mi Calm Calm - N/A   Mostly Cloudy
12:35 AM 33.8 °F - 32.0 °F 93% 30.25 in 6.0 mi Calm Calm - N/A   Mostly Cloudy
12:55 AM 32.0 °F - 32.0 °F 100% 30.25 in 1.8 mi Calm Calm - N/A   Overcast
1:15 AM 32.0 °F - 30.2 °F 93% 30.24 in 4.0 mi Calm Calm - N/A   Mostly Cloudy
1:35 AM 30.2 °F 26.7 °F 28.4 °F 93% 30.24 in 2.5 mi NE 3.5 mph - N/A   Partly Cloudy
1:55 AM 32.0 °F 27.5 °F 30.2 °F 93% 30.24 in 6.0 mi North 4.6 mph - N/A   Clear
2:15 AM 32.0 °F - 30.2 °F 93% 30.24 in 7.0 mi Calm Calm - N/A   Partly Cloudy
2:35 AM 32.0 °F - 30.2 °F 93% 30.25 in 8.0 mi Calm Calm - N/A   Scattered Clouds
2:55 AM 32.0 °F - 30.2 °F 93% 30.26 in 8.0 mi Calm Calm - N/A   Partly Cloudy
3:15 AM 32.0 °F 28.7 °F 30.2 °F 93% 30.26 in 9.0 mi NE 3.5 mph - N/A   Clear
3:35 AM 32.0 °F 28.7 °F 28.4 °F 87% 30.27 in 10.0 mi NNE 3.5 mph - N/A   Partly Cloudy
3:55 AM 30.2 °F - 28.4 °F 93% 30.27 in 10.0 mi Calm Calm - N/A   Partly Cloudy
4:15 AM 30.2 °F 24.3 °F 28.4 °F 93% 30.29 in 10.0 mi NNE 5.8 mph - N/A   Scattered Clouds
4:35 AM 32.0 °F - 30.2 °F 93% 30.28 in 9.0 mi Calm Calm - N/A   Overcast
4:55 AM 32.0 °F - 28.4 °F 87% 30.29 in 9.0 mi Calm Calm - N/A   Overcast
5:15 AM 30.2 °F - 28.4 °F 93% 30.29 in 10.0 mi Calm Calm - N/A   Mostly Cloudy
5:35 AM 30.2 °F - 28.4 °F 93% 30.30 in 10.0 mi Calm Calm - N/A   Mostly Cloudy
5:55 AM 28.4 °F 23.3 °F 28.4 °F 100% 30.30 in 10.0 mi ENE 4.6 mph - N/A   Mostly Cloudy
6:15 AM 30.2 °F - 28.4 °F 93% 30.32 in 10.0 mi Calm Calm - N/A   Mostly Cloudy
6:35 AM 32.0 °F 28.7 °F 28.4 °F 87% 30.32 in 10.0 mi NE 3.5 mph - N/A   Overcast
6:55 AM 30.2 °F - 28.4 °F 93% 30.32 in 10.0 mi Calm Calm - N/A   Overcast
7:15 AM 28.4 °F - 28.4 °F 100% 30.33 in 10.0 mi Calm Calm - N/A   Mostly Cloudy
7:35 AM 28.4 °F - 26.6 °F 93% 30.34 in 10.0 mi Calm Calm - N/A   Partly Cloudy
7:55 AM 28.4 °F - 26.6 °F 93% 30.34 in 7.0 mi Calm Calm - N/A   Scattered Clouds
8:15 AM 28.4 °F 24.6 °F 28.4 °F 100% 30.36 in 8.0 mi NNE 3.5 mph - N/A   Mostly Cloudy
8:35 AM 28.4 °F - 28.4 °F 100% 30.38 in 3.0 mi Calm Calm - N/A   Mostly Cloudy
8:55 AM 32.0 °F - 30.2 °F 93% 30.39 in 2.5 mi Calm Calm - N/A   Mostly Cloudy
9:15 AM 32.0 °F - 32.0 °F 100% 30.40 in 9.0 mi Calm Calm - N/A   Mostly Cloudy
9:35 AM 32.0 °F 28.7 °F 32.0 °F 100% 30.41 in 9.0 mi SW 3.5 mph - N/A   Scattered Clouds
9:55 AM 35.6 °F - 32.0 °F 87% 30.42 in 4.0 mi Calm Calm - N/A   Scattered Clouds
10:15 AM 37.4 °F - 33.8 °F 87% 30.43 in 6.0 mi Calm Calm - N/A   Scattered Clouds
10:35 AM 37.4 °F - 33.8 °F 87% 30.44 in 9.0 mi Calm Calm - N/A   Mostly Cloudy
10:55 AM 41.0 °F 36.4 °F 35.6 °F 81% 30.44 in 9.0 mi NNE 6.9 mph - N/A   Overcast
11:15 AM 41.0 °F - 33.8 °F 76% 30.43 in 10.0 mi Calm Calm - N/A   Overcast
11:35 AM 41.0 °F - 32.0 °F 70% 30.44 in 10.0 mi Calm Calm - N/A   Mostly Cloudy
11:55 AM 42.8 °F 40.1 °F 33.8 °F 70% 30.44 in 10.0 mi NNE 4.6 mph - N/A   Scattered Clouds
12:15 PM 44.6 °F - 32.0 °F 61% 30.44 in 10.0 mi Calm Calm - N/A   Partly Cloudy
12:35 PM 44.6 °F 43.1 °F 32.0 °F 61% 30.42 in 10.0 mi SE 3.5 mph - N/A   Partly Cloudy
12:55 PM 44.6 °F - 32.0 °F 61% 30.42 in 10.0 mi Calm Calm - N/A   Scattered Clouds
1:15 PM 46.4 °F 45.2 °F 32.0 °F 57% 30.41 in 10.0 mi South 3.5 mph - N/A   Mostly Cloudy
1:35 PM 46.4 °F - 32.0 °F 57% 30.40 in 10.0 mi Calm Calm - N/A   Overcast
1:55 PM 46.4 °F 44.3 °F 33.8 °F 62% 30.41 in 10.0 mi WSW 4.6 mph - N/A   Overcast
2:15 PM 46.4 °F 44.3 °F 33.8 °F 62% 30.41 in 10.0 mi WSW 4.6 mph - N/A   Overcast
2:35 PM 46.4 °F 44.3 °F 33.8 °F 62% 30.42 in 10.0 mi SW 4.6 mph - N/A   Overcast
2:55 PM 46.4 °F 44.3 °F 33.8 °F 62% 30.43 in 10.0 mi West 4.6 mph - N/A   Overcast
3:15 PM 46.4 °F - 33.8 °F 62% 30.43 in 10.0 mi Calm Calm - N/A   Overcast
3:35 PM 46.4 °F 42.4 °F 35.6 °F 66% 30.43 in 10.0 mi SSW 8.1 mph - N/A   Mostly Cloudy
3:55 PM 46.4 °F 45.2 °F 35.6 °F 66% 30.43 in 10.0 mi SW 3.5 mph - N/A   Partly Cloudy
4:15 PM 46.4 °F 42.9 °F 33.8 °F 62% 30.43 in 10.0 mi SW 6.9 mph - N/A   Clear
4:35 PM 46.4 °F 43.5 °F 33.8 °F 62% 30.42 in 10.0 mi SSW 5.8 mph - N/A   Clear
4:55 PM 42.8 °F 40.1 °F 35.6 °F 76% 30.43 in 10.0 mi NE 4.6 mph - N/A   Clear
5:15 PM 42.8 °F 41.1 °F 35.6 °F 76% 30.45 in 10.0 mi NE 3.5 mph - N/A   Clear
5:35 PM 39.2 °F - 35.6 °F 87% 30.45 in 10.0 mi Calm Calm - N/A   Scattered Clouds
5:55 PM 39.2 °F 37.0 °F 35.6 °F 87% 30.45 in 10.0 mi ENE 3.5 mph - N/A   Mostly Cloudy
6:15 PM 37.4 °F - 33.8 °F 87% 30.46 in 10.0 mi Calm Calm - N/A   Mostly Cloudy
6:35 PM 35.6 °F - 33.8 °F 93% 30.46 in 10.0 mi Calm Calm - N/A   Mostly Cloudy
6:55 PM 35.6 °F 31.7 °F 32.0 °F 87% 30.46 in 10.0 mi NNE 4.6 mph - N/A   Mostly Cloudy
7:15 PM 33.8 °F - 32.0 °F 93% 30.47 in 7.0 mi Calm Calm - N/A   Mostly Cloudy
7:35 PM 32.0 °F - 32.0 °F 100% 30.47 in 9.0 mi Calm Calm - N/A   Mostly Cloudy
7:55 PM 32.0 °F - 32.0 °F 100% 30.48 in 6.0 mi Calm Calm - N/A   Mostly Cloudy
8:15 PM 32.0 °F - 32.0 °F 100% 30.48 in 7.0 mi Calm Calm - N/A   Mostly Cloudy
8:35 PM 32.0 °F 28.7 °F 30.2 °F 93% 30.49 in 10.0 mi NE 3.5 mph - N/A   Scattered Clouds
8:55 PM 32.0 °F - 28.4 °F 87% 30.50 in 6.0 mi Calm Calm - N/A   Scattered Clouds
9:15 PM 32.0 °F - 28.4 °F 87% 30.51 in 5.0 mi Calm Calm - N/A   Mostly Cloudy
9:35 PM 30.2 °F - 28.4 °F 93% 30.52 in 4.0 mi Calm Calm - N/A   Scattered Clouds
9:55 PM 30.2 °F - 28.4 °F 93% 30.52 in 5.0 mi Calm Calm - N/A   Partly Cloudy
10:15 PM 30.2 °F - 28.4 °F 93% 30.52 in 1.2 mi Calm Calm - N/A   Overcast
10:35 PM 30.2 °F 26.7 °F 28.4 °F 93% 30.52 in 1.2 mi North 3.5 mph - N/A   Overcast
10:55 PM 30.2 °F - 28.4 °F 93% 30.52 in 1.0 mi Calm Calm - N/A   Overcast
11:15 PM 30.2 °F - 28.4 °F 93% 30.52 in 2.0 mi Calm Calm - N/A   Overcast
11:35 PM 32.0 °F - 28.4 °F 87% 30.52 in 3.0 mi Calm Calm - N/A   Overcast
11:55 PM 32.0 °F - 30.2 °F 93% 30.52 in 5.0 mi Calm Calm - N/A   Overcast